Weather History for Farmington, MO

Change the Weather History Date:

Friday, December 21, 2012

  Actual Average Record
Temperature  
Mean Temperature 32 °F -  
Max Temperature 39 °F 39 °F 57 °F (2006)
Min Temperature 24 °F 23 °F 6 °F (2008)
Degree Days  
Heating Degree Days 34    
Moisture  
Dew Point 11 °F    
Average Humidity 47    
Maximum Humidity 64    
Minimum Humidity 26    
Precipitation  
Precipitation 0.00 in - - ()
Sea Level Pressure  
Sea Level Pressure 30.20 in    
Wind  
Wind Speed 14 mph (WNW)    
Max Wind Speed 22 mph    
Max Gust Speed 34 mph    
Visibility 10 miles    
Events      
Averages and records for this station are not official NWS values.
T = Trace of Precipitation, MM = Missing Value Source: NWS Daily Summary

Daily Weather History Graph

Daily Weather History Graph

Search for Another Location

Airport:

Trip Planner

Search our weather history database for the weather conditions in past years. The results will help you decide how hot, cold, wet, or windy it might be!

Date:

Astronomy

Dec. 21, 2012 Rise Set
Actual Time 7:13 AM CST 4:46 PM CST
Civil Twilight 6:44 AM CST 5:16 PM CST
Nautical Twilight 6:11 AM CST 5:48 PM CST
Astronomical Twilight 5:39 AM CST 6:20 PM CST
Moon 12:29 PM CST (12/21) 1:05 AM CST (12/21)
Length of Visible Light 10h 31m
Length of Day
9h 32m
Waxing Gibbous, 65% of the Moon is Illuminated
Dec 21
Waxing Gibbous
Dec 28
Full
Jan 4
Last Quarter
Jan 11
New
Jan 18
First Quarter

Hourly Weather History & Observations

Time (CST) Temp. Windchill Dew Point Humidity Pressure Visibility Wind Dir Wind Speed Gust Speed Precip Events Conditions
12:15 AM 26.6 °F 15.2 °F 15.8 °F 64% 30.01 in 10.0 mi WNW 13.8 mph 27.6 mph N/A   Clear
12:55 AM 26.6 °F 13.1 °F 15.8 °F 64% 30.02 in 10.0 mi West 19.6 mph 28.8 mph N/A   Clear
1:15 AM 26.6 °F 13.4 °F 15.8 °F 64% 30.03 in 10.0 mi WNW 18.4 mph 27.6 mph N/A   Clear
1:35 AM 26.6 °F 13.8 °F 15.8 °F 64% 30.04 in 10.0 mi WNW 17.3 mph 24.2 mph N/A   Clear
1:55 AM 26.6 °F 13.8 °F 15.8 °F 64% 30.04 in 10.0 mi WNW 17.3 mph 27.6 mph N/A   Clear
2:15 AM 26.6 °F 13.8 °F 15.8 °F 64% 30.06 in 10.0 mi WNW 17.3 mph 26.5 mph N/A   Clear
2:35 AM 26.6 °F 14.3 °F 15.8 °F 64% 30.07 in 10.0 mi WNW 16.1 mph 24.2 mph N/A   Clear
2:55 AM 26.6 °F 13.8 °F 14.0 °F 59% 30.08 in 10.0 mi WNW 17.3 mph 24.2 mph N/A   Clear
3:15 AM 26.6 °F 14.3 °F 14.0 °F 59% 30.08 in 10.0 mi WNW 16.1 mph 25.3 mph N/A   Clear
3:35 AM 26.6 °F 15.2 °F 14.0 °F 59% 30.08 in 10.0 mi WNW 13.8 mph 24.2 mph N/A   Clear
3:55 AM 26.6 °F 15.2 °F 12.2 °F 55% 30.08 in 10.0 mi WNW 13.8 mph - N/A   Clear
4:15 AM 24.8 °F 12.9 °F 12.2 °F 59% 30.08 in 10.0 mi WNW 13.8 mph 20.7 mph N/A   Clear
4:35 AM 24.8 °F 11.1 °F 12.2 °F 59% 30.09 in 10.0 mi WNW 18.4 mph 25.3 mph N/A   Clear
4:55 AM 24.8 °F 11.9 °F 12.2 °F 59% 30.10 in 10.0 mi WNW 16.1 mph 25.3 mph N/A   Clear
5:15 AM 24.8 °F 11.9 °F 12.2 °F 59% 30.10 in 10.0 mi WNW 16.1 mph 23.0 mph N/A   Clear
5:35 AM 24.8 °F 11.1 °F 10.4 °F 54% 30.11 in 10.0 mi WNW 18.4 mph 28.8 mph N/A   Clear
5:55 AM 24.8 °F 11.1 °F 10.4 °F 54% 30.12 in 10.0 mi WNW 18.4 mph 25.3 mph N/A   Clear
6:15 AM 24.8 °F 11.1 °F 10.4 °F 54% 30.13 in 10.0 mi WNW 18.4 mph 26.5 mph N/A   Clear
6:35 AM 24.8 °F 11.9 °F 10.4 °F 54% 30.13 in 10.0 mi WNW 16.1 mph 25.3 mph N/A   Clear
6:55 AM 24.8 °F 11.1 °F 12.2 °F 59% 30.14 in 10.0 mi WNW 18.4 mph 26.5 mph N/A   Clear
7:15 AM 24.8 °F 10.3 °F 12.2 °F 59% 30.14 in 10.0 mi WNW 20.7 mph 26.5 mph N/A   Clear
7:35 AM 24.8 °F 10.3 °F 12.2 °F 59% 30.15 in 10.0 mi WNW 20.7 mph 27.6 mph N/A   Clear
7:55 AM 24.8 °F 11.5 °F 12.2 °F 59% 30.16 in 10.0 mi WNW 17.3 mph 27.6 mph N/A   Clear
8:15 AM 26.6 °F 13.4 °F 12.2 °F 55% 30.16 in 10.0 mi WNW 18.4 mph 27.6 mph N/A   Clear
8:35 AM 26.6 °F 13.8 °F 10.4 °F 51% 30.17 in 10.0 mi WNW 17.3 mph 34.5 mph N/A   Clear
8:55 AM 26.6 °F 14.3 °F 12.2 °F 55% 30.19 in 10.0 mi WNW 16.1 mph 31.1 mph N/A   Clear
9:15 AM 28.4 °F 15.4 °F 12.2 °F 51% 30.20 in 10.0 mi WNW 19.6 mph 28.8 mph N/A   Clear
9:35 AM 30.2 °F 17.1 °F 12.2 °F 47% 30.21 in 10.0 mi NW 21.9 mph 29.9 mph N/A   Clear
9:55 AM 30.2 °F 18.5 °F 12.2 °F 47% 30.22 in 10.0 mi NW 17.3 mph 27.6 mph N/A   Clear
10:15 AM 32.0 °F 20.5 °F 12.2 °F 44% 30.23 in 10.0 mi NW 18.4 mph 26.5 mph N/A   Clear
10:35 AM 33.8 °F 22.8 °F 12.2 °F 41% 30.23 in 10.0 mi WNW 18.4 mph 26.5 mph N/A   Clear
10:55 AM 33.8 °F 23.2 °F 12.2 °F 41% 30.23 in 10.0 mi WNW 17.3 mph 27.6 mph N/A   Clear
11:15 AM 35.6 °F 25.9 °F 12.2 °F 38% 30.24 in 10.0 mi WNW 16.1 mph 24.2 mph N/A   Clear
11:35 AM 35.6 °F 25.2 °F 12.2 °F 38% 30.24 in 10.0 mi NW 18.4 mph 28.8 mph N/A   Clear
11:55 AM 37.4 °F 28.5 °F 14.0 °F 38% 30.24 in 10.0 mi NW 15.0 mph 21.9 mph N/A   Clear
12:15 PM 37.4 °F 28.2 °F 12.2 °F 36% 30.24 in 10.0 mi NNW 16.1 mph 24.2 mph N/A   Clear
12:35 PM 37.4 °F 28.5 °F 12.2 °F 36% 30.23 in 10.0 mi NW 15.0 mph 24.2 mph N/A   Clear
12:55 PM 37.4 °F 28.9 °F 10.4 °F 33% 30.23 in 10.0 mi NW 13.8 mph 21.9 mph N/A   Clear
1:15 PM 39.2 °F 31.6 °F 12.2 °F 33% 30.23 in 10.0 mi NW 12.7 mph - N/A   Clear
1:35 PM 39.2 °F 30.8 °F 10.4 °F 31% 30.22 in 10.0 mi NW 15.0 mph 21.9 mph N/A   Clear
1:55 PM 39.2 °F 30.5 °F 8.6 °F 28% 30.22 in 10.0 mi NW 16.1 mph 21.9 mph N/A   Clear
2:15 PM 39.2 °F 31.2 °F 8.6 °F 28% 30.22 in 10.0 mi NW 13.8 mph 19.6 mph N/A   Clear
2:35 PM 39.2 °F 31.6 °F 8.6 °F 28% 30.23 in 10.0 mi NW 12.7 mph 19.6 mph N/A   Clear
2:55 PM 39.2 °F 32.0 °F 8.6 °F 28% 30.24 in 10.0 mi NW 11.5 mph 21.9 mph N/A   Clear
3:15 PM 39.2 °F 31.6 °F 8.6 °F 28% 30.24 in 10.0 mi NW 12.7 mph 20.7 mph N/A   Clear
3:35 PM 39.2 °F 32.5 °F 6.8 °F 26% 30.25 in 10.0 mi WNW 10.4 mph - N/A   Clear
3:55 PM 39.2 °F 31.6 °F 8.6 °F 28% 30.26 in 10.0 mi WNW 12.7 mph - N/A   Clear
4:15 PM 37.4 °F 29.8 °F 6.8 °F 28% 30.26 in 10.0 mi NW 11.5 mph 17.3 mph N/A   Clear
4:35 PM 37.4 °F 32.8 °F 6.8 °F 28% 30.27 in 10.0 mi WNW 5.8 mph - N/A   Clear
4:55 PM 35.6 °F 30.7 °F 6.8 °F 30% 30.27 in 10.0 mi WNW 5.8 mph - N/A   Clear
5:15 PM 35.6 °F 27.5 °F 6.8 °F 30% 30.28 in 10.0 mi WNW 11.5 mph - N/A   Clear
5:35 PM 33.8 °F 27.7 °F 8.6 °F 35% 30.28 in 10.0 mi NW 6.9 mph - N/A   Clear
5:55 PM 33.8 °F 29.6 °F 8.6 °F 35% 30.28 in 10.0 mi WNW 4.6 mph - N/A   Clear
6:15 PM 32.0 °F 25.6 °F 8.6 °F 38% 30.29 in 10.0 mi WNW 6.9 mph - N/A   Clear
6:35 PM 32.0 °F 28.7 °F 8.6 °F 38% 30.29 in 10.0 mi WNW 3.5 mph - N/A   Clear
6:55 PM 30.2 °F 25.4 °F 8.6 °F 40% 30.30 in 10.0 mi WNW 4.6 mph - N/A   Clear
7:15 PM 30.2 °F 24.3 °F 8.6 °F 40% 30.30 in 10.0 mi WNW 5.8 mph - N/A   Clear
7:35 PM 28.4 °F 22.2 °F 10.4 °F 47% 30.30 in 10.0 mi WNW 5.8 mph - N/A   Clear
7:55 PM 28.4 °F 23.3 °F 10.4 °F 47% 30.30 in 10.0 mi WNW 4.6 mph - N/A   Clear
8:15 PM 28.4 °F 22.2 °F 10.4 °F 47% 30.30 in 10.0 mi WNW 5.8 mph - N/A   Clear
8:35 PM 28.4 °F 21.2 °F 10.4 °F 47% 30.30 in 10.0 mi WNW 6.9 mph - N/A   Clear
8:55 PM 28.4 °F 20.4 °F 10.4 °F 47% 30.30 in 10.0 mi NW 8.1 mph - N/A   Clear
9:15 PM 28.4 °F 21.2 °F 12.2 °F 51% 30.29 in 10.0 mi NW 6.9 mph - N/A   Clear
9:35 PM 28.4 °F 21.2 °F 12.2 °F 51% 30.29 in 10.0 mi NW 6.9 mph - N/A   Clear
9:55 PM 28.4 °F 22.2 °F 10.4 °F 47% 30.29 in 10.0 mi WNW 5.8 mph - N/A   Clear
10:15 PM 28.4 °F 21.2 °F 12.2 °F 51% 30.29 in 10.0 mi WNW 6.9 mph - N/A   Clear
10:35 PM 28.4 °F 23.3 °F 12.2 °F 51% 30.29 in 10.0 mi NW 4.6 mph - N/A   Clear
10:55 PM 26.6 °F - 10.4 °F 51% 30.29 in 10.0 mi Calm Calm - N/A   Clear
11:15 PM 26.6 °F - 10.4 °F 51% 30.29 in 10.0 mi Calm Calm - N/A   Clear
11:35 PM 26.6 °F - 12.2 °F 55% 30.29 in 10.0 mi Calm Calm - N/A   Clear
11:55 PM 24.8 °F - 10.4 °F 54% 30.29 in 10.0 mi Calm Calm - N/A   Clear